Vorticity
9 9 9 8 8 7 8 9 9 8 8 6 4 5 8 12 12 11 12 12 12 10 9 9 7 6 5 5 6 7 7 7 5 4 3 3 4 6 4 6 7 8 11 8 5 4 5 5 3 2 3 5
9 10 10 10 10 10 9 9 9 8 8 8 6 3 3 7 11 12 11 13 13 14 16 16 12 9 7 5 5 5 7 7 6 6 5 3 3 5 5 4 5 6 8 9 8 5 4 6 5 3 3 4
7 8 8 9 9 10 11 11 11 10 10 10 9 8 5 2 6 9 10 11 11 12 14 15 15 13 10 8 6 5 6 7 7 7 5 4 4 4 4 4 4 5 6 6 7 6 5 5 6 5 4 4
6 7 8 7 7 7 8 10 11 11 11 11 11 11 11 7 4 5 7 8 9 9 4 3 8 12 11 9 9 7 7 7 6 7 6 4 5 5 4 4 4 4 5 5 3 4 5 6 6 5 4 4
7 7 8 8 8 8 7 7 8 9 9 9 10 11 12 12 9 7 6 6 8 9 7 6 7 11 13 12 10 8 7 8 7 6 7 5 5 6 5 4 5 5 6 7 4 2 4 5 6 6 4 4
7 7 7 7 8 8 8 7 6 6 7 7 7 7 8 10 11 9 8 8 7 6 9 11 10 11 15 17 17 16 11 8 7 8 8 7 6 7 7 5 4 4 5 7 6 4 3 2 4 7 5 4
6 6 6 7 7 7 8 8 7 6 6 6 5 5 5 6 8 9 8 8 8 7 6 7 8 8 11 14 17 22 21 14 7 7 10 10 8 8 8 8 7 5 4 5 5 5 5 3 2 4 5 5
6 6 5 5 6 7 7 8 9 8 8 7 6 5 4 4 4 6 7 7 7 7 6 6 6 5 7 8 7 12 20 21 13 7 9 12 11 11 10 9 10 9 7 6 5 4 5 5 3 3 4 4
6 6 6 6 5 6 7 8 8 9 9 8 8 7 6 5 4 4 4 6 5 5 5 5 6 4 4 6 3 1 4 9 13 9 6 10 11 12 13 11 11 11 9 8 8 7 5 4 5 4 3 5
7 7 6 7 6 5 5 6 8 9 9 9 9 9 9 8 7 6 4 4 4 4 4 3 4 5 4 5 4 5 3 3 9 11 5 6 8 9 12 12 11 11 11 9 8 9 7 6 6 5 4 4
7 6 6 6 6 6 5 5 5 6 8 8 9 9 10 10 10 9 7 5 4 4 4 3 2 3 6 5 2 3 4 2 5 9 6 4 6 7 8 9 11 10 11 10 8 9 10 8 7 7 6 5
7 6 6 7 6 6 6 6 5 5 5 6 7 8 9 10 11 11 10 9 7 6 5 5 3 2 5 4 1 -1 -2 -2 1 6 8 5 3 5 6 6 8 9 11 12 11 9 9 9 10 9 7 6
11 8 7 7 7 7 6 6 6 6 5 5 5 5 5 7 9 10 11 11 11 10 7 6 5 3 4 3 4 4 1 -0 1 3 6 6 4 3 4 4 6 8 8 11 13 12 9 8 9 10 10 8
15 13 10 8 7 7 8 7 7 6 6 7 6 5 4 4 6 7 8 9 9 11 11 9 7 5 5 4 4 5 4 3 2 1 1 5 8 6 3 3 4 8 8 7 9 11 11 9 8 9 11 11
13 14 14 12 9 7 6 7 8 8 7 7 7 7 6 5 5 5 5 7 7 8 10 10 9 7 6 5 5 4 4 4 3 2 0 1 5 7 6 3 1 3 7 8 8 9 9 10 10 8 9 11
9 11 13 13 13 10 7 6 6 7 7 7 8 7 7 7 7 7 6 5 5 6 7 8 9 9 8 6 6 6 5 5 4 4 3 2 2 4 6 6 3 -0 1 5 7 8 9 8 9 9 7 9
11 11 12 12 13 13 11 8 6 6 6 6 7 7 6 7 7 8 8 7 6 5 5 6 6 7 8 8 7 6 6 5 5 5 5 4 3 3 4 6 6 3 1 1 3 5 7 8 8 8 7 7
18 17 16 15 14 14 14 12 10 7 6 6 7 7 6 6 6 7 8 8 8 7 7 6 6 6 6 7 7 8 7 6 6 6 6 6 4 4 5 5 6 6 3 1 2 2 3 6 7 7 7 7
17 18 19 20 19 19 17 16 15 13 11 9 7 7 7 7 6 6 7 8 8 7 7 7 7 6 6 6 6 7 7 7 6 6 6 6 6 5 5 5 6 7 5 3 2 2 2 2 4 6 6 6
12 12 14 16 19 22 22 22 22 21 20 18 15 11 9 8 7 6 6 7 7 7 7 7 7 7 7 6 6 6 6 7 7 7 6 6 7 6 6 5 6 7 7 7 5 3 3 2 3 4 6 6
12 11 9 9 10 12 17 21 22 23 23 23 22 20 17 12 9 8 7 7 7 7 7 7 7 8 8 7 6 6 6 6 6 6 6 6 6 7 6 6 6 7 7 7 8 7 4 3 4 4 4 5
11 11 9 8 7 6 7 10 15 17 17 16 17 19 21 20 17 13 10 8 8 8 8 8 7 7 7 7 7 6 6 6 5 5 5 5 5 6 6 6 6 7 7 7 8 8 7 5 4 5 4 4
2 5 6 4 4 5 2 1 10 15 12 12 13 14 16 17 19 18 15 13 10 10 9 8 9 8 8 7 7 6 6 6 6 5 5 4 4 4 5 5 5 6 6 7 7 8 8 7 5 5 5 5
2 2 5 5 4 5 0 -4 6 15 12 11 11 11 11 11 13 14 15 16 15 13 11 10 9 9 8 8 7 6 6 6 6 6 5 5 4 4 4 4 4 4 5 5 6 7 7 7 6 5 5 5
10 7 8 8 7 8 5 -3 -1 5 10 13 11 8 7 7 10 11 11 12 13 14 13 12 10 10 9 9 9 8 6 6 5 5 5 5 5 4 3 3 3 3 4 4 4 5 6 7 6 6 6 5
11 7 6 7 7 7 7 4 3 -0 -1 6 10 9 6 4 7 10 11 10 9 10 12 12 11 10 9 9 9 9 8 7 6 5 5 5 5 5 4 3 3 3 3 4 3 3 4 4 5 5 6 6
25 15 7 3 4 7 6 4 5 4 -1 -2 1 5 6 4 3 6 10 11 9 8 9 11 11 10 9 7 7 9 9 8 7 7 5 6 5 5 5 4 3 3 3 3 3 3 3 3 4 4 4 6
45 41 28 14 4 3 6 6 6 6 3 -1 -1 2 3 3 1 1 4 7 9 9 7 8 10 11 10 8 7 7 8 7 7 7 6 6 6 6 5 5 5 4 4 4 3 3 3 3 4 4 3 4
49 55 56 48 32 14 4 3 5 7 7 3 0 1 0 1 1 1 1 1 4 7 6 6 7 10 11 10 9 7 7 6 6 6 6 5 5 6 5 5 5 5 5 5 5 4 4 4 5 5 4 3
31 40 51 60 64 55 36 17 6 2 5 7 5 5 2 0 -1 -1 1 1 2 5 6 4 3 6 9 10 10 9 8 8 6 5 6 6 4 4 5 5 5 5 5 5 6 6 5 5 4 5 6 6
11 18 26 36 50 64 69 62 45 25 12 5 3 4 5 6 3 0 -1 -1 -1 1 4 7 5 2 4 7 10 10 9 9 9 7 6 6 5 4 3 4 4 4 4 4 5 5 5 6 5 5 5 6
Height
5688 5688 5688 5688 5689 5690 5690 5691 5693 5694 5694 5695 5696 5696 5697 5699 5701 5704 5705 5705 5707 5709 5711 5713 5715 5718 5720 5722 5725 5728 5728 5730 5732 5733 5735 5738 5740 5742 5745 5747 5749 5751 5754 5758 5762 5764 5763 5762 5765 5767 5769 5771
5680 5680 5680 5681 5681 5682 5682 5684 5685 5686 5687 5688 5689 5689 5690 5691 5693 5696 5698 5699 5700 5702 5704 5705 5707 5710 5712 5715 5718 5720 5721 5723 5725 5726 5729 5732 5733 5735 5737 5740 5742 5744 5747 5751 5755 5759 5759 5758 5759 5761 5763 5765
5673 5673 5673 5674 5674 5674 5675 5676 5677 5678 5679 5680 5681 5682 5684 5684 5685 5687 5690 5692 5693 5695 5697 5697 5699 5701 5705 5708 5709 5711 5713 5716 5719 5720 5724 5725 5726 5727 5730 5733 5735 5737 5739 5744 5748 5752 5754 5754 5754 5756 5758 5760
5664 5665 5665 5666 5667 5667 5667 5668 5669 5670 5671 5672 5674 5675 5677 5678 5679 5680 5682 5684 5686 5688 5688 5689 5692 5694 5697 5700 5701 5703 5705 5708 5711 5714 5717 5718 5719 5721 5723 5725 5727 5730 5731 5735 5741 5744 5747 5750 5750 5751 5753 5754
5655 5656 5657 5658 5659 5659 5660 5661 5662 5662 5663 5665 5666 5667 5669 5671 5672 5673 5674 5676 5679 5680 5681 5682 5684 5686 5689 5692 5694 5695 5697 5699 5703 5707 5709 5711 5713 5715 5716 5718 5720 5722 5724 5727 5732 5736 5739 5743 5746 5746 5748 5749
5645 5646 5647 5649 5650 5651 5652 5653 5654 5655 5656 5657 5658 5660 5661 5663 5664 5666 5668 5669 5671 5673 5674 5676 5677 5679 5681 5684 5686 5688 5689 5691 5695 5699 5701 5703 5706 5708 5709 5711 5712 5714 5717 5720 5724 5728 5730 5735 5739 5742 5743 5744
5635 5637 5638 5639 5641 5642 5643 5644 5646 5647 5648 5650 5651 5652 5654 5655 5657 5658 5660 5661 5663 5665 5667 5669 5670 5672 5674 5676 5678 5679 5681 5683 5687 5690 5692 5695 5698 5700 5702 5704 5705 5707 5710 5712 5716 5719 5722 5727 5731 5735 5738 5738
5626 5627 5629 5630 5631 5633 5634 5635 5637 5638 5640 5641 5643 5644 5646 5648 5649 5651 5652 5654 5656 5658 5660 5662 5663 5665 5667 5670 5671 5671 5673 5675 5679 5682 5684 5687 5690 5692 5694 5696 5698 5700 5702 5705 5708 5710 5714 5719 5723 5728 5732 5734
5617 5618 5619 5620 5622 5623 5625 5626 5628 5629 5631 5633 5634 5636 5637 5639 5641 5643 5645 5646 5648 5650 5652 5654 5656 5659 5660 5663 5665 5665 5665 5668 5671 5674 5677 5679 5682 5684 5686 5689 5690 5692 5695 5698 5700 5701 5707 5712 5716 5720 5724 5728
5608 5608 5610 5611 5612 5614 5615 5617 5619 5620 5622 5623 5625 5627 5629 5630 5632 5634 5636 5638 5640 5642 5645 5646 5649 5651 5653 5656 5658 5658 5658 5660 5663 5666 5669 5672 5674 5677 5678 5681 5683 5685 5687 5691 5692 5694 5700 5704 5708 5712 5716 5720
5598 5599 5600 5601 5603 5604 5606 5607 5609 5611 5612 5614 5616 5618 5620 5621 5623 5625 5627 5630 5632 5635 5637 5639 5641 5643 5646 5648 5650 5650 5651 5653 5655 5657 5661 5665 5667 5669 5671 5673 5675 5678 5679 5683 5685 5688 5692 5696 5699 5704 5708 5712
5588 5589 5590 5591 5593 5594 5596 5597 5599 5601 5603 5604 5606 5608 5610 5612 5613 5615 5618 5621 5624 5626 5629 5631 5633 5635 5637 5640 5641 5642 5644 5646 5648 5650 5652 5656 5660 5663 5665 5666 5667 5670 5673 5675 5677 5681 5685 5688 5691 5695 5700 5704
5578 5579 5580 5581 5582 5584 5585 5587 5588 5590 5592 5594 5596 5599 5601 5602 5603 5606 5609 5611 5614 5617 5619 5622 5624 5627 5628 5631 5632 5634 5637 5639 5641 5642 5645 5648 5651 5655 5658 5660 5661 5663 5665 5667 5669 5673 5677 5681 5684 5688 5691 5696
5568 5569 5570 5571 5572 5574 5575 5576 5578 5580 5581 5584 5586 5588 5591 5592 5594 5597 5599 5601 5604 5607 5610 5612 5615 5618 5620 5622 5624 5626 5628 5631 5633 5635 5637 5640 5642 5646 5649 5652 5655 5657 5658 5660 5662 5665 5669 5673 5677 5681 5684 5687
5557 5559 5560 5561 5562 5563 5565 5566 5567 5569 5570 5573 5575 5578 5580 5582 5583 5587 5589 5591 5594 5597 5600 5602 5605 5608 5611 5613 5615 5617 5620 5622 5624 5627 5629 5632 5635 5637 5640 5644 5647 5650 5652 5654 5655 5658 5661 5665 5669 5674 5677 5680
5546 5548 5549 5551 5552 5553 5555 5556 5557 5558 5560 5562 5564 5567 5570 5571 5573 5576 5578 5581 5584 5587 5589 5592 5595 5598 5601 5603 5605 5608 5611 5613 5615 5618 5620 5623 5627 5629 5632 5635 5638 5641 5644 5647 5649 5651 5654 5657 5661 5666 5670 5673
5535 5536 5538 5539 5541 5542 5544 5545 5546 5547 5549 5551 5553 5556 5558 5560 5562 5565 5567 5571 5574 5576 5579 5581 5585 5588 5590 5593 5596 5599 5602 5604 5606 5609 5611 5614 5617 5621 5624 5627 5629 5632 5636 5639 5642 5645 5648 5650 5654 5658 5662 5665
5523 5525 5526 5528 5529 5531 5533 5534 5535 5536 5538 5540 5542 5544 5546 5549 5551 5554 5557 5560 5562 5565 5568 5571 5574 5577 5580 5582 5586 5589 5592 5595 5597 5599 5602 5604 5608 5611 5615 5618 5621 5624 5627 5631 5634 5637 5640 5643 5647 5650 5654 5657
5512 5513 5515 5517 5518 5520 5522 5523 5524 5525 5527 5528 5530 5532 5534 5537 5540 5543 5546 5548 5551 5554 5557 5560 5563 5566 5569 5572 5575 5579 5581 5585 5588 5590 5592 5595 5598 5602 5605 5608 5611 5615 5619 5622 5625 5628 5632 5635 5639 5642 5646 5649
5502 5503 5504 5505 5507 5509 5511 5512 5513 5514 5516 5517 5519 5520 5523 5525 5528 5532 5534 5537 5540 5543 5546 5549 5552 5555 5558 5561 5565 5568 5571 5574 5578 5580 5583 5586 5589 5592 5595 5599 5602 5606 5609 5613 5616 5620 5624 5627 5631 5634 5638 5641
5491 5492 5493 5494 5496 5498 5500 5502 5503 5504 5505 5506 5507 5509 5511 5514 5516 5519 5522 5525 5528 5532 5535 5538 5541 5544 5547 5550 5554 5557 5560 5564 5567 5570 5573 5576 5579 5582 5586 5589 5593 5596 5600 5604 5608 5611 5615 5619 5622 5626 5629 5632
5480 5480 5481 5483 5484 5486 5488 5491 5492 5494 5495 5495 5496 5498 5500 5502 5504 5507 5510 5513 5516 5520 5523 5526 5529 5532 5536 5539 5543 5546 5550 5553 5556 5560 5563 5566 5570 5573 5577 5580 5584 5586 5590 5594 5598 5602 5607 5611 5614 5617 5620 5624
5469 5469 5470 5472 5473 5474 5476 5479 5481 5483 5484 5485 5485 5487 5488 5490 5492 5494 5497 5500 5503 5507 5510 5514 5517 5521 5524 5528 5531 5535 5538 5542 5545 5549 5553 5557 5560 5563 5567 5571 5574 5577 5580 5584 5589 5593 5598 5602 5606 5609 5613 5616
5461 5462 5462 5463 5463 5464 5465 5466 5468 5471 5474 5475 5475 5476 5477 5479 5480 5482 5485 5487 5490 5494 5497 5501 5505 5508 5513 5516 5519 5523 5527 5530 5533 5537 5542 5546 5550 5554 5557 5561 5565 5568 5571 5575 5579 5583 5588 5593 5598 5601 5604 5608
5452 5453 5453 5454 5455 5455 5456 5456 5456 5458 5461 5463 5465 5466 5467 5468 5470 5471 5473 5475 5478 5481 5484 5488 5492 5496 5501 5504 5507 5511 5515 5518 5522 5526 5531 5535 5539 5543 5547 5551 5555 5558 5561 5565 5570 5574 5578 5583 5588 5592 5596 5600
5440 5441 5442 5443 5445 5446 5446 5446 5445 5446 5449 5451 5453 5454 5455 5457 5458 5460 5462 5464 5466 5469 5472 5475 5479 5483 5488 5492 5495 5499 5503 5506 5510 5514 5519 5523 5527 5532 5536 5540 5544 5548 5552 5555 5560 5564 5568 5572 5578 5583 5587 5591
5428 5430 5431 5433 5435 5435 5435 5436 5436 5436 5438 5438 5440 5441 5443 5445 5447 5448 5450 5452 5455 5457 5460 5463 5467 5471 5475 5480 5483 5487 5491 5494 5498 5502 5507 5511 5516 5520 5524 5529 5533 5537 5541 5545 5550 5554 5558 5563 5568 5572 5577 5582
5419 5420 5422 5423 5423 5423 5424 5426 5426 5426 5427 5427 5427 5429 5431 5433 5435 5437 5438 5441 5443 5445 5449 5452 5455 5459 5463 5467 5471 5474 5479 5483 5487 5491 5495 5500 5504 5508 5512 5517 5522 5526 5530 5535 5540 5544 5549 5554 5556 5561 5568 5572
5410 5410 5411 5411 5411 5412 5413 5414 5415 5416 5417 5417 5417 5418 5420 5422 5424 5426 5428 5430 5432 5434 5437 5440 5443 5447 5450 5454 5458 5461 5466 5471 5475 5479 5484 5488 5492 5496 5501 5506 5511 5515 5519 5524 5529 5533 5539 5543 5546 5551 5556 5559
5403 5402 5401 5400 5400 5401 5401 5402 5403 5404 5405 5406 5406 5407 5409 5410 5412 5414 5417 5419 5421 5423 5426 5428 5431 5435 5438 5441 5445 5449 5453 5457 5463 5467 5472 5476 5480 5485 5490 5494 5499 5503 5509 5513 5517 5523 5528 5532 5536 5540 5544 5549
5398 5396 5394 5392 5391 5390 5390 5390 5391 5391 5392 5393 5394 5396 5397 5398 5399 5401 5404 5407 5409 5412 5414 5415 5418 5423 5426 5429 5433 5436 5440 5445 5450 5455 5459 5463 5467 5472 5478 5482 5487 5493 5498 5502 5506 5512 5517 5521 5526 5530 5534 5539